EW1107 Weather Reports


Display with metric or nautical units.
time (UTC)temp
F
wind
direction
speed
MPH
gust
MPH
rain 1hr
in
rain 24hr
in
rain mn
in
humidity
%
barometer
mb
20260906035546 55 285 11.0 29.0 0.00 0.17 0.00 87 1017.8
20260906035046 55 314 14.0 25.0 0.00 0.17 0.00 87 1017.8
20260906034546 55 286 13.0 25.0 0.00 0.17 0.00 87 1017.8
20260906033548 55 300 16.0 30.0 0.00 0.17 0.00 88 1017.7
20260906033045 55 276 15.0 40.0 0.00 0.17 0.00 88 1017.6
20260906032542 55 298 14.0 40.0 0.00 0.17 0.00 88 1017.5
20260906032042 55 272 8.0 34.0 0.00 0.17 0.00 88 1017.5
20260906031541 55 254 11.0 32.0 0.00 0.17 0.00 88 1017.4
20260906031039 55 286 9.0 31.0 0.00 0.17 0.00 88 1017.4
20260906030539 55 266 12.0 29.0 0.00 0.17 0.00 88 1017.3
20260906030039 55 298 14.0 29.0 0.00 0.17 0.00 89 1017.3
20260906025538 55 277 10.0 25.0 0.00 0.17 0.00 89 1017.3
20260906025038 55 281 9.0 29.0 0.00 0.17 0.00 89 1017.3
20260906024536 55 267 15.0 29.0 0.00 0.17 0.00 89 1017.2
20260906024036 55 242 9.0 23.0 0.00 0.17 0.00 89 1017.3
20260906023537 55 226 6.0 23.0 0.00 0.17 0.00 90 1017.2
20260906023043 55 275 9.0 31.0 0.00 0.17 0.00 90 1017.2
20260906022537 55 263 14.0 31.0 0.00 0.17 0.00 90 1017.1
20260906022040 55 242 9.0 25.0 0.00 0.17 0.00 90 1017.1
20260906021534 55 270 10.0 32.0 0.00 0.17 0.00 90 1017.0
20260906021033 55 266 7.0 32.0 0.00 0.17 0.00 91 1017.1
20260906020533 55 261 9.0 23.0 0.00 0.17 0.00 91 1017.0
20260906020034 55 273 8.0 21.0 0.00 0.17 0.00 91 1017.1
20260906015535 55 276 12.0 21.0 0.00 0.17 0.00 91 1017.1
20260906015032 55 275 9.0 29.0 0.00 0.17 0.00 91 1017.1
20260906014535 55 296 5.0 21.0 0.00 0.17 0.00 91 1017.0
20260906014036 55 272 8.0 24.0 0.00 0.17 0.00 91 1016.9
20260906013531 55 281 6.0 29.0 0.00 0.17 0.00 91 1016.9
20260906013030 55 228 16.0 35.0 0.00 0.17 0.00 91 1016.9
20260906012529 55 309 10.0 35.0 0.00 0.17 0.00 91 1016.9
20260906012033 55 264 9.0 21.0 0.00 0.17 0.00 91 1016.9
20260906011529 55 313 8.0 21.0 0.00 0.17 0.00 91 1016.8
20260906011029 55 264 8.0 24.0 0.00 0.17 0.00 91 1016.8
20260906010528 55 229 11.0 28.0 0.00 0.17 0.00 91 1016.8
20260906010028 55 254 9.0 28.0 0.00 0.18 0.00 91 1016.7
20260906005528 55 271 9.0 20.0 0.00 0.18 0.00 91 1016.8
20260906005032 55 212 9.0 19.0 0.00 0.18 0.00 91 1016.8
20260906004527 55 296 9.0 28.0 0.00 0.18 0.00 91 1016.8
20260906004027 55 301 9.0 28.0 0.00 0.18 0.00 91 1016.8
20260906003626 55 278 8.0 29.0 0.00 0.18 0.00 91 1016.7
20260906003026 55 274 13.0 23.0 0.00 0.18 0.00 91 1016.7
20260906002525 56 279 8.0 29.0 0.00 0.18 0.00 91 1016.7
20260906002024 56 270 10.0 29.0 0.00 0.18 0.00 91 1016.7
20260906001523 55 302 13.0 26.0 0.00 0.18 0.00 91 1016.6
20260906001022 55 284 12.0 24.0 0.00 0.18 0.00 91 1016.6
20260906000528 55 292 10.0 26.0 0.00 0.18 0.00 91 1016.6
20260906000022 55 299 10.0 24.0 0.00 0.18 0.00 91 1016.6
20260905235523 55 296 7.0 29.0 0.00 0.18 0.00 91 1016.6
20260905235021 56 288 8.0 37.0 0.00 0.18 0.00 91 1016.6
20260905234520 55 307 18.0 37.0 0.00 0.18 0.00 91 1016.5
20260905234023 56 323 10.0 26.0 0.00 0.18 0.00 92 1016.7
20260905233519 55 295 13.0 27.0 0.00 0.18 0.00 92 1016.6
20260905233018 56 236 13.0 34.0 0.00 0.18 0.00 92 1016.6
20260905232517 55 281 12.0 33.0 0.00 0.18 0.00 92 1016.5
20260905232016 55 294 15.0 33.0 0.00 0.18 0.00 93 1016.5
20260905231516 55 325 13.0 30.0 0.00 0.18 0.00 93 1016.4
20260905231015 55 220 14.0 30.0 0.00 0.18 0.00 93 1016.4
20260905230515 55 261 14.0 29.0 0.00 0.18 0.00 93 1016.4
20260905230015 55 234 10.0 25.0 0.00 0.19 0.00 93 1016.3
20260905225514 55 273 9.0 21.0 0.00 0.19 0.00 93 1016.4
20260905225013 55 283 9.0 19.0 0.00 0.19 0.00 93 1016.3
20260905224518 55 276 6.0 24.0 0.00 0.19 0.00 93 1016.3
20260905224014 55 314 9.0 25.0 0.00 0.19 0.00 93 1016.3
20260905223512 55 315 7.0 18.0 0.00 0.19 0.00 93 1016.4
20260905223112 55 285 6.0 21.0 0.00 0.19 0.00 93 1016.3
20260905222515 55 272 11.0 21.0 0.00 0.19 0.00 93 1016.3
20260905222011 55 284 8.0 28.0 0.00 0.19 0.00 93 1016.3
20260905221528 55 313 11.0 28.0 0.00 0.19 0.00 93 1016.3
20260905221011 55 302 12.0 28.0 0.00 0.19 0.00 93 1016.3
20260905220510 55 293 10.0 25.0 0.00 0.19 0.00 93 1016.3
20260905220009 55 310 14.0 22.0 0.00 0.19 0.19 94 1016.3
20260905215508 55 286 12.0 25.0 0.00 0.19 0.19 94 1016.2
20260905215007 55 281 9.0 27.0 0.00 0.19 0.19 94 1016.1
20260905214506 55 263 9.0 27.0 0.00 0.19 0.19 94 1016.1
20260905214005 55 283 10.0 22.0 0.00 0.19 0.19 94 1016.1
20260905213505 55 261 11.0 22.0 0.00 0.19 0.19 94 1016.0
20260905213005 55 222 9.0 21.0 0.00 0.19 0.19 94 1016.0
20260905212504 55 229 7.0 19.0 0.00 0.19 0.19 94 1016.0
20260905212003 55 273 7.0 21.0 0.00 0.19 0.19 94 1016.0
20260905211503 55 294 5.0 21.0 0.00 0.19 0.19 94 1015.9
20260905211002 55 276 7.0 17.0 0.00 0.19 0.19 93 1015.8
20260905210502 55 261 6.0 17.0 0.00 0.19 0.19 93 1015.7
20260905210000 55 260 7.0 17.0 0.00 0.19 0.19 93 1015.7
20260905205601 55 225 6.0 19.0 0.00 0.19 0.19 93 1015.6
20260905205059 55 273 6.0 19.0 0.00 0.19 0.19 93 1015.7
20260905204559 55 260 7.0 17.0 0.00 0.19 0.19 93 1015.7
20260905204058 55 281 6.0 17.0 0.00 0.19 0.19 93 1015.6
20260905203601 55 274 6.0 15.0 0.00 0.19 0.19 92 1015.5
20260905203059 55 263 4.0 17.0 0.00 0.19 0.19 92 1015.6
20260905202659 55 188 3.0 17.0 0.00 0.19 0.19 92 1015.5
20260905202058 55 259 3.0 15.0 0.00 0.19 0.19 92 1015.4
20260905201608 55 277 5.0 15.0 0.00 0.19 0.19 92 1015.5
20260905201056 55 260 5.0 14.0 0.00 0.19 0.19 92 1015.4
20260905200555 55 290 5.0 17.0 0.00 0.19 0.19 92 1015.2
20260905200058 55 261 4.0 17.0 0.00 0.34 0.19 92 1015.2
20260905195556 55 254 8.0 19.0 0.01 0.34 0.19 92 1015.2
20260905195055 55 264 8.0 23.0 0.01 0.34 0.19 92 1015.2
20260905194555 55 248 9.0 23.0 0.01 0.34 0.19 92 1015.2
20260905194057 55 261 5.0 15.0 0.02 0.34 0.19 92 1015.2
20260905193556 55 226 4.0 15.0 0.03 0.34 0.19 91 1015.3
20260905193054 55 268 5.0 14.0 0.03 0.34 0.19 91 1015.2
20260905192554 55 265 4.0 20.0 0.03 0.34 0.19 91 1015.2
20260905192054 55 242 9.0 18.0 0.03 0.34 0.19 91 1015.1
20260905191557 55 285 3.0 17.0 0.03 0.34 0.19 91 1014.9
20260905191053 55 253 4.0 17.0 0.03 0.34 0.19 90 1014.9
20260905190553 55 217 6.0 15.0 0.03 0.34 0.19 90 1014.9
20260905190105 56 260 3.0 15.0 0.03 0.34 0.19 90 1015.0
20260905185551 56 288 8.0 23.0 0.02 0.33 0.18 89 1015.1
20260905185049 56 271 8.0 32.0 0.02 0.33 0.18 89 1015.3
20260905184605 56 232 13.0 32.0 0.02 0.32 0.17 87 1015.3
20260905184049 57 300 11.0 40.0 0.01 0.31 0.17 87 1015.4
20260905183549 57 275 24.0 41.0 0.00 0.31 0.16 86 1015.4
20260905183048 57 275 16.0 64.0 0.00 0.31 0.16 87 1015.4
20260905182547 57 290 25.0 64.0 0.00 0.31 0.16 88 1015.2
20260905181545 57 225 6.0 11.0 0.01 0.31 0.16 92 1015.0
20260905181044 57 227 4.0 11.0 0.01 0.31 0.16 92 1014.5
20260905180544 57 210 2.0 9.0 0.01 0.31 0.16 92 1014.6
20260905180044 57 219 4.0 9.0 0.01 0.31 0.16 92 1014.6
20260905175546 57 232 2.0 11.0 0.01 0.31 0.16 92 1014.7
20260905175044 57 265 3.0 15.0 0.01 0.31 0.16 91 1014.6
20260905174550 57 272 5.0 16.0 0.01 0.31 0.16 91 1014.5
20260905174042 57 258 6.0 28.0 0.01 0.31 0.16 91 1014.7
20260905173541 57 275 6.0 30.0 0.01 0.31 0.16 91 1014.6
20260905173041 57 279 11.0 32.0 0.01 0.31 0.16 91 1014.7
20260905172540 57 267 15.0 32.0 0.01 0.31 0.16 91 1014.6
20260905172039 57 285 13.0 32.0 0.01 0.30 0.15 91 1014.7
20260905171539 58 234 4.0 11.0 0.02 0.30 0.15 91 1014.5
20260905171038 58 233 1.0 4.0 0.06 0.30 0.15 91 1014.2
20260905170540 58 240 0.0 0.0 0.12 0.30 0.15 91 1014.1
20260905170040 58 277 0.0 4.0 0.13 0.30 0.15 91 1014.1
20260905165537 58 277 0.0 5.0 0.13 0.30 0.15 90 1014.0
20260905165036 58 290 0.0 5.0 0.13 0.30 0.15 91 1014.0
20260905164536 58 279 0.0 3.0 0.13 0.30 0.15 90 1014.0
20260905164035 58 279 0.0 4.0 0.13 0.30 0.15 90 1014.1
20260905163536 58 279 0.0 11.0 0.13 0.30 0.15 90 1014.1
20260905163036 58 282 3.0 16.0 0.13 0.30 0.15 89 1014.1
20260905162535 59 292 5.0 17.0 0.13 0.30 0.15 89 1014.2
20260905162035 59 259 9.0 31.0 0.13 0.28 0.14 88 1014.7
20260905161031 61 245 11.0 19.0 0.07 0.24 0.09 84 1014.7
20260905160530 62 291 6.0 12.0 0.02 0.18 0.03 82 1014.1
20260905160031 62 240 0.0 8.0 0.00 0.17 0.02 80 1013.5
20260905155531 63 236 1.0 8.0 0.00 0.17 0.02 78 1013.5
20260905155029 63 229 0.0 4.0 0.00 0.17 0.02 77 1013.4
20260905154529 63 294 0.0 7.0 0.00 0.17 0.02 77 1013.5
20260905154030 63 294 1.0 7.0 0.00 0.17 0.02 77 1013.3
20260905153529 63 294 0.0 7.0 0.00 0.17 0.02 79 1013.3
20260905153029 62 339 1.0 11.0 0.00 0.17 0.02 79 1013.5
20260905152529 62 295 0.0 11.0 0.00 0.17 0.02 78 1013.5
20260905152028 63 298 4.0 11.0 0.00 0.17 0.02 76 1013.4
20260905151529 63 296 4.0 11.0 0.00 0.17 0.02 75 1013.5
20260905151036 63 294 3.0 13.0 0.00 0.17 0.02 73 1013.5
20260905150528 64 16 4.0 18.0 0.00 0.17 0.02 72 1013.5
20260905150028 64 286 7.0 18.0 0.00 0.17 0.02 71 1013.3
20260905145528 65 360 9.0 17.0 0.00 0.17 0.02 70 1013.3
20260905145028 65 28 4.0 15.0 0.00 0.17 0.02 71 1013.3
20260905144528 63 298 7.0 15.0 0.00 0.17 0.02 74 1013.3
20260905144027 62 351 6.0 22.0 0.00 0.17 0.02 74 1013.3
20260905143527 62 340 8.0 22.0 0.00 0.17 0.02 73 1013.4
20260905143030 62 293 10.0 23.0 0.00 0.17 0.02 74 1013.4
20260905142526 62 312 13.0 35.0 0.00 0.17 0.02 73 1013.4
20260905142028 62 360 13.0 47.0 0.00 0.17 0.02 72 1013.6
20260905141529 64 269 21.0 47.0 0.00 0.17 0.02 67 1013.6
20260905141025 67 320 17.0 45.0 0.00 0.17 0.02 61 1013.5
20260905140525 69 293 14.0 26.0 0.00 0.17 0.02 58 1013.0
20260905140025 70 285 7.0 22.0 0.00 0.17 0.02 58 1013.0
20260905135525 70 269 11.0 47.0 0.00 0.17 0.02 57 1012.9
20260905135024 70 300 22.0 47.0 0.00 0.17 0.02 57 1012.9
20260905134526 70 240 15.0 31.0 0.00 0.17 0.02 57 1012.9
20260905134024 70 261 12.0 32.0 0.00 0.17 0.02 59 1012.9
20260905133524 69 278 20.0 32.0 0.00 0.17 0.02 58 1012.9
20260905133024 70 303 14.0 38.0 0.00 0.17 0.02 58 1012.9
20260905132523 70 217 16.0 38.0 0.00 0.17 0.02 58 1013.0
20260905132022 69 236 17.0 30.0 0.00 0.17 0.02 57 1013.0
20260905131541 69 298 13.0 30.0 0.00 0.17 0.02 58 1013.1
20260905131121 69 259 17.0 40.0 0.00 0.17 0.02 58 1013.0
20260905130522 69 291 22.0 40.0 0.00 0.17 0.02 57 1013.0
20260905130128 69 259 17.0 39.0 0.00 0.17 0.02 57 1013.0
20260905125520 69 177 14.0 39.0 0.00 0.17 0.02 58 1013.0
20260905125021 68 248 13.0 39.0 0.00 0.17 0.02 58 1013.0
20260905124536 68 286 16.0 40.0 0.00 0.17 0.02 56 1013.1
20260905124020 69 289 21.0 46.0 0.00 0.17 0.02 54 1013.0
20260905123520 69 338 15.0 46.0 0.00 0.17 0.02 56 1013.0
20260905123020 69 273 10.0 34.0 0.00 0.17 0.02 58 1013.1
20260905122520 67 323 16.0 35.0 0.00 0.17 0.02 59 1013.2
20260905122020 67 303 17.0 37.0 0.00 0.17 0.02 58 1013.2
20260905121524 68 292 13.0 43.0 0.00 0.17 0.02 57 1013.2
20260905121021 69 225 17.0 37.0 0.00 0.17 0.02 56 1013.2
20260905120522 68 284 16.0 32.0 0.00 0.17 0.02 58 1013.2
20260905120019 67 298 14.0 42.0 0.00 0.17 0.02 59 1013.3
20260905115517 68 312 16.0 49.0 0.00 0.17 0.02 56 1013.3
20260905115020 69 215 16.0 49.0 0.00 0.17 0.02 56 1013.2
20260905114534 68 273 13.0 41.0 0.00 0.17 0.02 59 1013.2
20260905114016 68 261 15.0 41.0 0.00 0.17 0.02 59 1013.1
20260905113515 68 271 19.0 42.0 0.00 0.17 0.02 59 1013.2
20260905113014 69 297 17.0 35.0 0.00 0.17 0.02 58 1013.2
20260905112515 68 303 18.0 46.0 0.00 0.17 0.02 58 1013.2
20260905112016 68 244 18.0 46.0 0.00 0.17 0.02 57 1013.1
20260905111516 68 238 20.0 44.0 0.00 0.17 0.02 58 1013.1
20260905111013 68 315 22.0 50.0 0.00 0.17 0.02 57 1013.1
20260905110616 68 230 16.0 50.0 0.00 0.17 0.02 58 1013.0
20260905110012 68 288 23.0 50.0 0.00 0.17 0.02 60 1013.1
20260905105511 68 301 15.0 52.0 0.00 0.17 0.02 60 1013.1
20260905105011 67 239 22.0 52.0 0.00 0.17 0.02 61 1013.0
20260905104511 68 326 20.0 47.0 0.00 0.17 0.02 58 1013.1
20260905104010 67 275 23.0 47.0 0.00 0.17 0.02 58 1013.0
20260905103512 68 192 18.0 46.0 0.00 0.17 0.02 59 1013.0
20260905103023 67 300 25.0 46.0 0.00 0.17 0.02 59 1013.0
20260905102509 68 319 14.0 44.0 0.00 0.17 0.02 61 1012.9
20260905102008 67 303 19.0 42.0 0.00 0.17 0.02 62 1012.9
20260905101515 66 289 14.0 49.0 0.00 0.17 0.02 64 1013.0
20260905101006 67 296 27.0 49.0 0.00 0.17 0.02 63 1012.8
20260905100506 66 296 19.0 34.0 0.00 0.17 0.02 67 1012.8
20260905100006 66 236 17.0 35.0 0.00 0.17 0.02 66 1012.7
20260905095505 66 269 18.0 42.0 0.00 0.17 0.02 66 1012.7
20260905095004 66 251 18.0 43.0 0.00 0.17 0.02 66 1012.7
20260905094504 67 239 12.0 38.0 0.00 0.17 0.02 66 1012.7
20260905094004 68 265 15.0 34.0 0.00 0.17 0.02 66 1012.5
20260905093501 66 294 17.0 34.0 0.00 0.17 0.02 67 1012.5
20260905093102 67 245 15.0 34.0 0.00 0.17 0.02 68 1012.6
20260905092603 66 306 16.0 34.0 0.00 0.17 0.02 69 1012.6
20260905092058 66 275 14.0 41.0 0.00 0.17 0.02 69 1012.5
20260905091609 66 247 17.0 38.0 0.00 0.17 0.02 70 1012.6
20260905091056 65 351 16.0 43.0 0.00 0.17 0.02 71 1012.6
20260905090556 65 257 14.0 43.0 0.00 0.17 0.02 70 1012.4
20260905090155 65 205 14.0 33.0 0.00 0.17 0.02 71 1012.3
20260905085554 65 251 18.0 34.0 0.00 0.17 0.02 70 1012.4
20260905085052 64 277 8.0 33.0 0.00 0.17 0.02 74 1012.3
20260905084605 64 252 15.0 32.0 0.00 0.17 0.02 72 1012.3
20260905084050 64 272 17.0 42.0 0.00 0.17 0.02 71 1012.2
20260905083550 65 277 20.0 42.0 0.00 0.17 0.02 71 1012.2
20260905083049 65 283 11.0 37.0 0.00 0.17 0.02 73 1012.1
20260905082549 64 264 20.0 38.0 0.00 0.17 0.02 73 1012.1
20260905082048 64 293 18.0 38.0 0.00 0.17 0.02 74 1012.0
20260905081547 64 307 12.0 38.0 0.00 0.17 0.02 76 1012.0
20260905081046 63 281 17.0 38.0 0.00 0.17 0.02 76 1012.0
20260905080546 63 282 14.0 36.0 0.00 0.17 0.02 77 1012.0
20260905080045 63 267 12.0 32.0 0.00 0.17 0.02 78 1012.1
20260905075547 63 235 14.0 32.0 0.00 0.17 0.02 77 1012.1
20260905075043 64 263 17.0 31.0 0.00 0.17 0.02 77 1012.0
20260905074544 64 180 12.0 30.0 0.00 0.17 0.02 77 1011.9
20260905074044 64 244 12.0 29.0 0.00 0.17 0.02 78 1011.9
20260905073542 63 284 10.0 30.0 0.00 0.17 0.02 79 1011.7
20260905073042 64 300 18.0 29.0 0.00 0.17 0.02 78 1011.8
20260905072541 62 223 9.0 34.0 0.00 0.17 0.02 81 1011.8
20260905072040 62 253 14.0 30.0 0.00 0.17 0.02 80 1011.8
20260905071539 63 244 14.0 31.0 0.00 0.17 0.02 80 1011.7
20260905071037 63 213 16.0 32.0 0.00 0.17 0.02 80 1011.5
20260905070538 62 284 17.0 35.0 0.00 0.17 0.02 81 1011.6
20260905070036 62 203 18.0 41.0 0.00 0.17 0.02 81 1011.5
20260905065635 62 265 19.0 41.0 0.00 0.17 0.02 82 1011.5
20260905065136 62 256 15.0 37.0 0.00 0.17 0.02 82 1011.4
20260905064538 62 254 20.0 36.0 0.00 0.17 0.02 82 1011.2
20260905064035 62 281 7.0 36.0 0.00 0.17 0.02 83 1011.2
20260905063532 62 238 12.0 41.0 0.00 0.17 0.02 83 1011.1
20260905063032 61 302 20.0 41.0 0.00 0.17 0.02 83 1011.2
20260905062531 61 304 14.0 29.0 0.00 0.17 0.02 83 1011.1
20260905062032 61 288 15.0 29.0 0.00 0.17 0.02 84 1011.0
20260905061530 61 294 9.0 21.0 0.00 0.17 0.02 84 1011.0
20260905061030 61 281 11.0 37.0 0.00 0.17 0.02 84 1011.0
20260905060531 61 247 18.0 37.0 0.00 0.17 0.02 85 1011.0
20260905060032 61 293 7.0 27.0 0.00 0.17 0.02 85 1010.9
20260905055531 61 296 12.0 27.0 0.00 0.17 0.02 85 1010.8
20260905055026 61 257 9.0 25.0 0.00 0.17 0.02 86 1010.8
20260905054527 61 263 12.0 31.0 0.00 0.17 0.02 86 1010.7
20260905054025 61 219 6.0 29.0 0.00 0.17 0.02 87 1010.6
20260905053524 60 213 11.0 25.0 0.00 0.17 0.02 87 1010.6
20260905053024 61 217 12.0 34.0 0.00 0.17 0.02 87 1010.6
20260905052524 61 267 10.0 24.0 0.00 0.17 0.02 87 1010.7
20260905052022 61 276 6.0 25.0 0.00 0.17 0.02 87 1010.6
20260905051532 61 263 6.0 22.0 0.00 0.17 0.02 87 1010.4
20260905051019 61 254 9.0 22.0 0.00 0.17 0.02 87 1010.4
20260905050518 61 302 9.0 21.0 0.00 0.17 0.02 87 1010.3
20260905050017 61 286 10.0 21.0 0.00 0.17 0.02 87 1010.3
20260905045518 61 198 5.0 26.0 0.00 0.17 0.02 87 1010.2
20260905044515 61 255 14.0 23.0 0.00 0.17 0.02 87 1010.2
20260905044018 61 302 13.0 31.0 0.00 0.17 0.02 88 1010.0
20260905043513 61 254 9.0 31.0 0.00 0.17 0.02 88 1009.9
20260905043012 61 298 8.0 23.0 0.00 0.17 0.02 88 1009.8
20260905042511 61 290 12.0 23.0 0.00 0.17 0.02 88 1009.8
20260905042011 61 286 8.0 35.0 0.00 0.17 0.02 88 1009.8
20260905041512 61 276 14.0 35.0 0.00 0.17 0.02 88 1009.8
20260905041008 61 246 13.0 26.0 0.00 0.17 0.02 88 1009.8
20260905040507 61 241 10.0 32.0 0.00 0.17 0.02 88 1009.7
20260905040007 61 306 14.0 32.0 0.00 0.17 0.02 88 1009.5